Time,TemperatureF,DewpointF,PressureIn,WindDirection,WindDirectionDegrees,WindSpeedMPH,WindSpeedGustMPH,Humidity,HourlyPrecipIn,Conditions,Clouds,dailyrainin,SoftwareType,DateUTC
2013-04-10 00:00:00,46.6,39.8,29.65,NNE,23,0.0,0.0,77,0.00,,,0.20,WUHU216HW,2013-04-10 04:00:00,
2013-04-10 00:05:00,46.6,39.8,29.65,NNE,23,0.0,0.0,77,0.00,,,0.00,WUHU216HW,2013-04-10 04:05:00,
2013-04-10 00:10:00,46.4,39.7,29.64,NNE,23,0.5,0.7,77,0.00,,,0.00,WUHU216HW,2013-04-10 04:10:00,
2013-04-10 00:15:00,46.4,39.7,29.64,NNE,23,0.0,0.7,77,0.00,,,0.00,WUHU216HW,2013-04-10 04:15:00,
2013-04-10 00:21:00,46.4,39.7,29.63,NNE,23,0.4,0.4,77,0.00,,,0.00,WUHU216HW,2013-04-10 04:21:00,
2013-04-10 00:26:00,46.4,39.7,29.63,North,0,0.4,0.7,77,0.00,,,0.00,WUHU216HW,2013-04-10 04:26:00,
2013-04-10 00:31:00,46.4,40.0,29.63,NNW,338,0.0,0.7,78,0.00,,,0.00,WUHU216HW,2013-04-10 04:31:00,
2013-04-10 00:36:00,46.4,40.0,29.63,NNW,338,0.0,0.7,78,0.00,,,0.00,WUHU216HW,2013-04-10 04:36:00,
2013-04-10 00:41:00,46.4,40.0,29.62,NNE,23,0.0,0.4,78,0.00,,,0.00,WUHU216HW,2013-04-10 04:41:00,
2013-04-10 00:46:00,46.4,39.7,29.62,NNE,23,0.0,0.4,77,0.00,,,0.00,WUHU216HW,2013-04-10 04:46:00,
2013-04-10 00:51:00,46.4,40.3,29.61,NNE,23,0.6,0.7,79,0.00,,,0.00,WUHU216HW,2013-04-10 04:51:00,
2013-04-10 00:57:00,46.4,40.3,29.61,NW,315,0.0,0.7,79,0.00,,,0.00,WUHU216HW,2013-04-10 04:57:00,
2013-04-10 01:02:00,46.3,40.1,29.61,NW,315,0.0,0.2,79,0.00,,,0.00,WUHU216HW,2013-04-10 05:02:00,
2013-04-10 01:07:00,46.3,40.5,29.62,NNW,338,0.0,0.0,80,0.00,,,0.00,WUHU216HW,2013-04-10 05:07:00,
2013-04-10 01:12:00,46.1,40.6,29.63,NNW,338,0.0,0.4,81,0.00,,,0.00,WUHU216HW,2013-04-10 05:12:00,
2013-04-10 01:17:00,46.1,40.6,29.64,NNW,338,0.0,0.4,81,0.00,,,0.00,WUHU216HW,2013-04-10 05:17:00,
2013-04-10 01:22:00,45.9,40.4,29.64,NNW,338,0.2,0.2,81,0.00,,,0.00,WUHU216HW,2013-04-10 05:22:00,
2013-04-10 01:27:00,45.9,40.8,29.65,WSW,248,0.2,0.9,82,0.01,,,0.01,WUHU216HW,2013-04-10 05:27:00,
2013-04-10 01:32:00,45.7,40.9,29.66,North,359,0.4,0.9,83,0.01,,,0.01,WUHU216HW,2013-04-10 05:32:00,
2013-04-10 01:38:00,45.7,40.9,29.66,NE,45,0.5,0.9,83,0.02,,,0.02,WUHU216HW,2013-04-10 05:38:00,
2013-04-10 01:43:00,45.7,41.2,29.66,NNE,23,2.0,2.0,84,0.03,,,0.03,WUHU216HW,2013-04-10 05:43:00,
2013-04-10 01:48:00,45.7,41.5,29.65,NNE,23,0.0,2.0,85,0.05,,,0.05,WUHU216HW,2013-04-10 05:48:00,
2013-04-10 01:53:00,45.5,41.3,29.66,West,270,0.4,1.3,85,0.06,,,0.06,WUHU216HW,2013-04-10 05:53:00,
2013-04-10 01:58:00,45.5,41.3,29.67,SW,225,0.4,0.7,85,0.06,,,0.06,WUHU216HW,2013-04-10 05:58:00,
2013-04-10 02:03:00,45.5,41.3,29.67,WSW,248,0.3,0.4,85,0.07,,,0.07,WUHU216HW,2013-04-10 06:03:00,
2013-04-10 02:08:00,45.5,41.3,29.68,WSW,248,0.9,1.1,85,0.09,,,0.09,WUHU216HW,2013-04-10 06:08:00,
2013-04-10 02:13:00,45.5,41.3,29.68,SW,225,0.2,1.1,85,0.11,,,0.11,WUHU216HW,2013-04-10 06:13:00,
2013-04-10 02:18:00,45.4,41.1,29.68,SW,225,0.2,0.4,85,0.11,,,0.11,WUHU216HW,2013-04-10 06:18:00,
2013-04-10 02:23:00,45.4,41.4,29.68,SW,225,0.0,0.4,86,0.12,,,0.12,WUHU216HW,2013-04-10 06:23:00,
2013-04-10 02:28:00,45.4,41.4,29.68,SW,225,0.0,0.2,86,0.12,,,0.13,WUHU216HW,2013-04-10 06:28:00,
2013-04-10 02:33:00,45.4,41.8,29.67,SW,225,0.4,0.4,87,0.13,,,0.14,WUHU216HW,2013-04-10 06:33:00,
2013-04-10 02:38:00,45.4,41.8,29.66,SW,225,0.4,0.4,87,0.14,,,0.16,WUHU216HW,2013-04-10 06:38:00,
2013-04-10 02:43:00,45.4,42.0,29.67,SW,225,0.0,0.4,88,0.13,,,0.16,WUHU216HW,2013-04-10 06:43:00,
2013-04-10 02:48:00,45.2,41.9,29.67,SW,225,0.4,0.4,88,0.12,,,0.17,WUHU216HW,2013-04-10 06:48:00,
2013-04-10 02:53:00,45.2,41.9,29.66,NNE,23,0.4,0.4,88,0.13,,,0.19,WUHU216HW,2013-04-10 06:53:00,
2013-04-10 02:58:00,45.2,41.9,29.66,NNE,23,0.0,0.4,88,0.13,,,0.20,WUHU216HW,2013-04-10 06:58:00,
2013-04-10 03:03:00,45.2,41.9,29.66,NNE,23,0.7,0.7,88,0.15,,,0.22,WUHU216HW,2013-04-10 07:03:00,
2013-04-10 03:08:00,45.2,41.9,29.65,NNE,23,0.0,0.7,88,0.13,,,0.23,WUHU216HW,2013-04-10 07:08:00,
2013-04-10 03:13:00,45.2,41.9,29.64,NNE,23,0.0,0.7,88,0.13,,,0.24,WUHU216HW,2013-04-10 07:13:00,
2013-04-10 03:18:00,45.0,41.7,29.64,NNE,23,0.2,0.2,88,0.12,,,0.24,WUHU216HW,2013-04-10 07:18:00,
2013-04-10 03:23:00,45.0,41.7,29.63,NNE,23,0.4,0.7,88,0.11,,,0.24,WUHU216HW,2013-04-10 07:23:00,
2013-04-10 03:29:00,45.0,41.7,29.63,NNE,23,0.0,0.7,88,0.12,,,0.25,WUHU216HW,2013-04-10 07:29:00,
2013-04-10 03:34:00,45.0,41.7,29.63,NNE,23,0.0,0.2,88,0.10,,,0.25,WUHU216HW,2013-04-10 07:34:00,
2013-04-10 03:39:00,44.8,41.9,29.62,North,0,0.4,0.4,89,0.09,,,0.25,WUHU216HW,2013-04-10 07:39:00,
2013-04-10 03:44:00,44.8,42.1,29.62,North,0,0.2,0.7,90,0.08,,,0.25,WUHU216HW,2013-04-10 07:44:00,
2013-04-10 03:49:00,45.0,42.3,29.63,North,0,0.4,0.7,90,0.08,,,0.25,WUHU216HW,2013-04-10 07:49:00,
2013-04-10 03:54:00,45.0,42.3,29.63,North,0,0.4,0.4,90,0.06,,,0.26,WUHU216HW,2013-04-10 07:54:00,
2013-04-10 03:59:00,45.0,42.3,29.63,NW,315,0.0,0.4,90,0.06,,,0.27,WUHU216HW,2013-04-10 07:59:00,
2013-04-10 04:04:00,44.8,42.1,29.62,NW,315,0.0,0.0,90,0.05,,,0.27,WUHU216HW,2013-04-10 08:04:00,
2013-04-10 04:09:00,45.0,42.3,29.62,NW,315,0.0,0.0,90,0.04,,,0.27,WUHU216HW,2013-04-10 08:09:00,
2013-04-10 04:14:00,45.0,42.3,29.62,WSW,240,0.4,0.4,90,0.03,,,0.27,WUHU216HW,2013-04-10 08:14:00,
2013-04-10 04:19:00,45.0,42.3,29.62,WSW,248,0.0,0.4,90,0.04,,,0.28,WUHU216HW,2013-04-10 08:19:00,
2013-04-10 04:24:00,45.0,42.3,29.61,WSW,248,0.0,0.0,90,0.04,,,0.28,WUHU216HW,2013-04-10 08:24:00,
2013-04-10 04:29:00,45.0,42.3,29.61,WSW,248,0.0,0.0,90,0.03,,,0.28,WUHU216HW,2013-04-10 08:29:00,
2013-04-10 04:34:00,45.0,42.3,29.61,NNW,338,0.2,0.2,90,0.03,,,0.28,WUHU216HW,2013-04-10 08:34:00,
2013-04-10 04:39:00,45.0,42.6,29.61,NNW,338,0.4,0.7,91,0.03,,,0.28,WUHU216HW,2013-04-10 08:39:00,
2013-04-10 04:44:00,45.0,42.6,29.61,NNW,338,0.4,0.7,91,0.03,,,0.28,WUHU216HW,2013-04-10 08:44:00,
2013-04-10 04:50:00,45.0,42.6,29.61,NNW,338,0.0,0.4,91,0.03,,,0.28,WUHU216HW,2013-04-10 08:50:00,
2013-04-10 04:55:00,45.0,42.6,29.62,NNW,338,0.0,0.4,91,0.03,,,0.29,WUHU216HW,2013-04-10 08:55:00,
2013-04-10 05:00:00,45.0,42.3,29.62,NNW,338,0.0,0.0,90,0.02,,,0.29,WUHU216HW,2013-04-10 09:00:00,
2013-04-10 05:05:00,45.0,42.3,29.62,NNW,338,0.0,0.0,90,0.02,,,0.29,WUHU216HW,2013-04-10 09:05:00,
2013-04-10 05:10:00,45.0,42.3,29.61,NNW,338,0.0,0.0,90,0.02,,,0.29,WUHU216HW,2013-04-10 09:10:00,
2013-04-10 05:15:00,44.8,42.1,29.61,NNW,338,0.0,0.0,90,0.01,,,0.29,WUHU216HW,2013-04-10 09:15:00,
2013-04-10 05:20:00,44.8,42.1,29.61,NNW,338,0.0,0.0,90,0.01,,,0.29,WUHU216HW,2013-04-10 09:20:00,
2013-04-10 05:25:00,44.8,42.1,29.61,NNW,338,0.0,0.0,90,0.01,,,0.29,WUHU216HW,2013-04-10 09:25:00,
2013-04-10 05:30:00,44.8,42.1,29.61,NNW,338,0.0,0.0,90,0.01,,,0.29,WUHU216HW,2013-04-10 09:30:00,
2013-04-10 05:35:00,44.8,42.1,29.61,NNW,338,0.0,0.0,90,0.01,,,0.29,WUHU216HW,2013-04-10 09:35:00,
2013-04-10 05:40:00,45.0,42.3,29.61,NNW,338,0.0,0.0,90,0.01,,,0.29,WUHU216HW,2013-04-10 09:40:00,
2013-04-10 05:45:00,45.0,42.3,29.61,NNW,338,0.0,0.0,90,0.01,,,0.29,WUHU216HW,2013-04-10 09:45:00,
2013-04-10 05:50:00,45.0,42.3,29.61,NNW,338,0.0,0.0,90,0.01,,,0.29,WUHU216HW,2013-04-10 09:50:00,
2013-04-10 05:56:00,45.0,42.6,29.61,NNW,338,0.0,0.0,91,0.01,,,0.30,WUHU216HW,2013-04-10 09:56:00,
2013-04-10 06:01:00,45.0,42.6,29.61,NNW,338,0.0,0.0,91,0.01,,,0.30,WUHU216HW,2013-04-10 10:01:00,
2013-04-10 06:06:00,45.0,42.6,29.61,NNW,338,0.0,0.0,91,0.01,,,0.30,WUHU216HW,2013-04-10 10:06:00,
2013-04-10 06:11:00,45.0,42.6,29.61,NNW,338,0.0,0.0,91,0.01,,,0.30,WUHU216HW,2013-04-10 10:11:00,
2013-04-10 06:16:00,45.0,42.6,29.61,NNW,338,0.0,0.0,91,0.01,,,0.30,WUHU216HW,2013-04-10 10:16:00,
2013-04-10 06:21:00,45.0,42.6,29.61,NNW,338,0.0,0.0,91,0.01,,,0.30,WUHU216HW,2013-04-10 10:21:00,
2013-04-10 06:26:00,45.0,42.6,29.61,NNW,338,0.0,0.0,91,0.01,,,0.30,WUHU216HW,2013-04-10 10:26:00,
2013-04-10 06:31:00,45.0,42.6,29.61,NNW,338,0.0,0.0,91,0.01,,,0.30,WUHU216HW,2013-04-10 10:31:00,
2013-04-10 06:37:00,45.0,42.6,29.61,NNW,338,0.0,0.0,91,0.01,,,0.30,WUHU216HW,2013-04-10 10:37:00,
2013-04-10 06:42:00,45.0,42.6,29.62,NNW,338,0.0,0.0,91,0.01,,,0.30,WUHU216HW,2013-04-10 10:42:00,
2013-04-10 06:47:00,45.0,42.6,29.62,NNW,338,0.0,0.0,91,0.01,,,0.30,WUHU216HW,2013-04-10 10:47:00,
2013-04-10 06:52:00,45.0,42.6,29.62,NNW,338,0.0,0.0,91,0.01,,,0.30,WUHU216HW,2013-04-10 10:52:00,
2013-04-10 06:57:00,45.2,42.8,29.62,NNW,338,0.0,0.0,91,0.00,,,0.30,WUHU216HW,2013-04-10 10:57:00,
2013-04-10 07:02:00,45.2,42.8,29.62,NNW,338,0.0,0.0,91,0.00,,,0.30,WUHU216HW,2013-04-10 11:02:00,
2013-04-10 07:07:00,45.2,42.8,29.62,NNW,338,0.0,0.0,91,0.00,,,0.30,WUHU216HW,2013-04-10 11:07:00,
2013-04-10 07:12:00,45.2,42.8,29.62,NNW,338,0.0,0.0,91,0.00,,,0.30,WUHU216HW,2013-04-10 11:12:00,
2013-04-10 07:17:00,45.2,42.8,29.62,NNW,338,0.2,0.2,91,0.00,,,0.30,WUHU216HW,2013-04-10 11:17:00,
2013-04-10 07:22:00,45.4,42.9,29.62,NNW,338,0.0,0.2,91,0.00,,,0.30,WUHU216HW,2013-04-10 11:22:00,
2013-04-10 07:27:00,45.4,42.9,29.63,NNW,338,0.0,0.2,91,0.00,,,0.30,WUHU216HW,2013-04-10 11:27:00,
2013-04-10 07:32:00,45.4,42.9,29.63,NNW,338,0.0,0.2,91,0.00,,,0.30,WUHU216HW,2013-04-10 11:32:00,
2013-04-10 07:37:00,45.4,42.9,29.63,NNW,338,0.0,0.0,91,0.00,,,0.30,WUHU216HW,2013-04-10 11:37:00,
2013-04-10 07:42:00,45.5,43.1,29.63,NNW,338,0.0,0.7,91,0.00,,,0.30,WUHU216HW,2013-04-10 11:42:00,
2013-04-10 07:47:00,45.5,43.1,29.63,NNW,338,0.0,0.7,91,0.00,,,0.30,WUHU216HW,2013-04-10 11:47:00,
2013-04-10 07:52:00,45.5,43.1,29.63,NNW,338,0.0,0.0,91,0.00,,,0.30,WUHU216HW,2013-04-10 11:52:00,
2013-04-10 07:58:00,45.4,42.9,29.63,NNW,338,0.0,0.0,91,0.00,,,0.30,WUHU216HW,2013-04-10 11:58:00,
2013-04-10 08:03:00,45.5,43.1,29.63,NNW,338,0.0,0.0,91,0.00,,,0.30,WUHU216HW,2013-04-10 12:03:00,
2013-04-10 08:08:00,45.5,43.1,29.63,NNW,338,0.0,0.0,91,0.01,,,0.31,WUHU216HW,2013-04-10 12:08:00,
2013-04-10 08:13:00,45.7,43.3,29.63,NNW,338,0.0,0.0,91,0.01,,,0.31,WUHU216HW,2013-04-10 12:13:00,
2013-04-10 08:18:00,45.7,43.3,29.63,NNW,338,0.0,0.0,91,0.01,,,0.31,WUHU216HW,2013-04-10 12:18:00,
2013-04-10 08:23:00,45.7,43.3,29.64,NNW,338,0.0,0.0,91,0.01,,,0.31,WUHU216HW,2013-04-10 12:23:00,
2013-04-10 08:28:00,45.7,43.3,29.64,NNW,338,0.0,0.0,91,0.01,,,0.31,WUHU216HW,2013-04-10 12:28:00,
2013-04-10 08:33:00,45.9,43.7,29.64,WNW,293,0.3,0.4,92,0.01,,,0.31,WUHU216HW,2013-04-10 12:33:00,
2013-04-10 08:38:00,46.1,43.9,29.64,WSW,248,0.2,0.4,92,0.01,,,0.31,WUHU216HW,2013-04-10 12:38:00,
2013-04-10 08:43:00,46.3,44.1,29.64,NNW,330,0.3,0.4,92,0.01,,,0.31,WUHU216HW,2013-04-10 12:43:00,
2013-04-10 08:48:00,46.3,44.1,29.64,WNW,293,0.2,0.4,92,0.01,,,0.31,WUHU216HW,2013-04-10 12:48:00,
2013-04-10 08:53:00,46.4,44.3,29.64,WSW,248,0.3,0.4,92,0.01,,,0.31,WUHU216HW,2013-04-10 12:53:00,
2013-04-10 08:58:00,46.4,44.3,29.64,WNW,293,0.0,0.9,92,0.01,,,0.31,WUHU216HW,2013-04-10 12:58:00,
2013-04-10 09:04:00,46.4,44.3,29.64,West,270,0.2,0.9,92,0.01,,,0.31,WUHU216HW,2013-04-10 13:04:00,
2013-04-10 09:09:00,46.8,44.6,29.64,WSW,248,0.0,0.4,92,0.00,,,0.31,WUHU216HW,2013-04-10 13:09:00,
2013-04-10 09:14:00,46.8,44.6,29.64,NNW,338,0.0,0.4,92,0.00,,,0.31,WUHU216HW,2013-04-10 13:14:00,
2013-04-10 09:19:00,47.2,45.0,29.64,WSW,248,0.4,0.4,92,0.00,,,0.31,WUHU216HW,2013-04-10 13:19:00,
2013-04-10 09:24:00,47.2,45.0,29.64,WNW,293,0.0,0.4,92,0.00,,,0.31,WUHU216HW,2013-04-10 13:24:00,
2013-04-10 09:29:00,47.5,45.4,29.64,SW,225,0.7,0.7,92,0.00,,,0.31,WUHU216HW,2013-04-10 13:29:00,
2013-04-10 09:34:00,47.5,45.4,29.64,NW,312,0.8,0.9,92,0.00,,,0.31,WUHU216HW,2013-04-10 13:34:00,
2013-04-10 09:39:00,47.9,45.7,29.63,NW,315,0.4,0.9,92,0.00,,,0.31,WUHU216HW,2013-04-10 13:39:00,
2013-04-10 09:44:00,47.9,45.7,29.63,North,357,0.3,2.5,92,0.00,,,0.31,WUHU216HW,2013-04-10 13:44:00,
2013-04-10 09:49:00,48.6,46.5,29.63,SE,124,0.5,2.5,92,0.00,,,0.31,WUHU216HW,2013-04-10 13:49:00,
2013-04-10 09:54:00,49.1,46.9,29.63,WSW,248,0.4,0.9,92,0.00,,,0.31,WUHU216HW,2013-04-10 13:54:00,
2013-04-10 09:59:00,49.3,47.1,29.63,WSW,248,0.7,1.8,92,0.00,,,0.31,WUHU216HW,2013-04-10 13:59:00,
2013-04-10 10:04:00,49.7,47.4,29.63,SSW,203,0.2,1.8,92,0.00,,,0.31,WUHU216HW,2013-04-10 14:04:00,
2013-04-10 10:09:00,50.2,47.9,29.63,North,0,0.7,0.9,92,0.00,,,0.31,WUHU216HW,2013-04-10 14:09:00,
2013-04-10 10:14:00,50.4,47.8,29.63,West,270,0.7,1.1,91,0.00,,,0.31,WUHU216HW,2013-04-10 14:14:00,
2013-04-10 10:19:00,50.8,48.2,29.64,NNE,23,0.8,1.1,91,0.00,,,0.31,WUHU216HW,2013-04-10 14:19:00,
2013-04-10 10:25:00,51.1,48.5,29.64,SSW,211,1.0,1.1,91,0.00,,,0.31,WUHU216HW,2013-04-10 14:25:00,
2013-04-10 10:30:00,51.5,48.9,29.64,NNE,23,0.7,1.3,91,0.00,,,0.31,WUHU216HW,2013-04-10 14:30:00,
2013-04-10 10:35:00,52.0,49.4,29.64,WSW,248,0.9,1.3,91,0.00,,,0.31,WUHU216HW,2013-04-10 14:35:00,
2013-04-10 10:40:00,52.4,49.5,29.64,NNE,20,1.2,1.6,90,0.00,,,0.31,WUHU216HW,2013-04-10 14:40:00,
2013-04-10 10:45:00,52.4,48.9,29.64,NNE,23,0.9,1.6,88,0.00,,,0.31,WUHU216HW,2013-04-10 14:45:00,
2013-04-10 10:50:00,52.9,49.4,29.64,WSW,248,1.8,1.8,88,0.00,,,0.31,WUHU216HW,2013-04-10 14:50:00,
2013-04-10 10:55:00,53.8,50.7,29.64,North,0,0.0,1.8,89,0.00,,,0.31,WUHU216HW,2013-04-10 14:55:00,
2013-04-10 11:00:00,54.9,51.4,29.64,WSW,248,2.5,2.5,88,0.00,,,0.31,WUHU216HW,2013-04-10 15:00:00,
2013-04-10 11:05:00,55.6,51.5,29.64,NNW,338,2.7,2.7,86,0.00,,,0.31,WUHU216HW,2013-04-10 15:05:00,
2013-04-10 11:10:00,56.5,52.4,29.64,WSW,248,0.9,2.7,86,0.00,,,0.31,WUHU216HW,2013-04-10 15:10:00,
2013-04-10 11:15:00,57.8,52.9,29.63,SSW,203,4.0,4.0,84,0.00,,,0.31,WUHU216HW,2013-04-10 15:15:00,
2013-04-10 11:20:00,58.7,53.6,29.63,SSE,158,0.0,4.0,83,0.00,,,0.31,WUHU216HW,2013-04-10 15:20:00,
2013-04-10 11:25:00,59.9,54.8,29.64,East,90,0.2,4.0,83,0.00,,,0.31,WUHU216HW,2013-04-10 15:25:00,
2013-04-10 11:31:00,60.3,53.1,29.63,West,270,1.1,1.6,77,0.00,,,0.31,WUHU216HW,2013-04-10 15:31:00,
2013-04-10 11:36:00,60.1,52.9,29.63,South,180,0.7,1.6,77,0.00,,,0.31,WUHU216HW,2013-04-10 15:36:00,
2013-04-10 11:41:00,60.5,52.9,29.63,WSW,248,1.6,2.5,76,0.00,,,0.31,WUHU216HW,2013-04-10 15:41:00,
2013-04-10 11:46:00,60.1,51.5,29.63,WSW,248,1.6,2.5,73,0.00,,,0.31,WUHU216HW,2013-04-10 15:46:00,
2013-04-10 11:51:00,59.8,51.5,29.62,North,0,0.0,1.6,74,0.00,,,0.31,WUHU216HW,2013-04-10 15:51:00,
2013-04-10 11:56:00,59.4,50.8,29.62,North,0,0.0,0.0,73,0.00,,,0.31,WUHU216HW,2013-04-10 15:56:00,
2013-04-10 12:01:00,59.2,51.3,29.62,North,0,0.0,0.0,75,0.00,,,0.31,WUHU216HW,2013-04-10 16:01:00,
2013-04-10 12:06:00,59.4,51.1,29.62,North,0,0.0,0.0,74,0.00,,,0.31,WUHU216HW,2013-04-10 16:06:00,
2013-04-10 12:12:00,59.9,50.9,29.62,North,0,0.0,0.0,72,0.00,,,0.31,WUHU216HW,2013-04-10 16:12:00,
2013-04-10 12:17:00,60.1,50.4,29.62,North,0,0.0,0.0,70,0.00,,,0.31,WUHU216HW,2013-04-10 16:17:00,
2013-04-10 12:22:00,59.8,49.6,29.61,North,0,0.0,0.0,69,0.00,,,0.31,WUHU216HW,2013-04-10 16:22:00,
2013-04-10 12:27:00,59.2,48.7,29.61,North,0,0.0,0.0,68,0.00,,,0.31,WUHU216HW,2013-04-10 16:27:00,
2013-04-10 12:32:00,59.2,49.9,29.62,North,0,0.0,0.0,71,0.00,,,0.31,WUHU216HW,2013-04-10 16:32:00,
2013-04-10 12:38:00,59.4,49.2,29.62,North,0,0.0,0.0,69,0.00,,,0.31,WUHU216HW,2013-04-10 16:38:00,
2013-04-10 12:43:00,59.6,49.9,29.62,North,0,0.0,0.0,70,0.00,,,0.31,WUHU216HW,2013-04-10 16:43:00,
2013-04-10 12:48:00,59.6,49.9,29.62,North,0,0.0,0.0,70,0.00,,,0.31,WUHU216HW,2013-04-10 16:48:00,
2013-04-10 12:53:00,59.8,49.6,29.62,North,0,0.0,0.0,69,0.00,,,0.31,WUHU216HW,2013-04-10 16:53:00,
2013-04-10 12:58:00,60.1,50.4,29.62,North,0,0.0,0.0,70,0.00,,,0.31,WUHU216HW,2013-04-10 16:58:00,
2013-04-10 13:03:00,60.1,49.1,29.62,NNE,23,1.1,1.1,67,0.00,,,0.31,WUHU216HW,2013-04-10 17:03:00,
2013-04-10 13:08:00,60.3,50.1,29.62,NNW,348,0.9,2.2,69,0.00,,,0.31,WUHU216HW,2013-04-10 17:08:00,
2013-04-10 13:13:00,60.5,50.3,29.62,WSW,248,3.8,3.8,69,0.00,,,0.31,WUHU216HW,2013-04-10 17:13:00,
2013-04-10 13:18:00,60.3,49.3,29.62,NNW,346,1.7,3.8,67,0.00,,,0.31,WUHU216HW,2013-04-10 17:18:00,
2013-04-10 13:23:00,60.1,50.0,29.62,WSW,239,1.2,3.8,69,0.00,,,0.31,WUHU216HW,2013-04-10 17:23:00,
2013-04-10 13:28:00,59.9,49.4,29.61,SW,228,0.8,1.8,68,0.00,,,0.31,WUHU216HW,2013-04-10 17:28:00,
2013-04-10 13:33:00,59.8,49.6,29.61,South,180,2.0,2.0,69,0.01,,,0.32,WUHU216HW,2013-04-10 17:33:00,
2013-04-10 13:38:00,59.4,49.2,29.61,North,11,1.2,2.2,69,0.01,,,0.32,WUHU216HW,2013-04-10 17:38:00,
2013-04-10 13:43:00,59.2,49.1,29.62,West,265,0.6,2.2,69,0.01,,,0.32,WUHU216HW,2013-04-10 17:43:00,
2013-04-10 13:48:00,59.0,48.9,29.62,WSW,242,1.0,1.1,69,0.01,,,0.32,WUHU216HW,2013-04-10 17:48:00,
2013-04-10 13:54:00,58.9,49.1,29.63,WSW,248,0.4,1.3,70,0.01,,,0.32,WUHU216HW,2013-04-10 17:54:00,
2013-04-10 13:59:00,58.7,49.0,29.63,West,270,1.6,1.6,70,0.01,,,0.32,WUHU216HW,2013-04-10 17:59:00,
2013-04-10 14:04:00,58.5,49.1,29.63,WSW,256,1.7,2.5,71,0.01,,,0.32,WUHU216HW,2013-04-10 18:04:00,
2013-04-10 14:09:00,58.5,49.1,29.63,SSE,158,0.2,2.5,71,0.01,,,0.32,WUHU216HW,2013-04-10 18:09:00,
2013-04-10 14:14:00,58.5,49.1,29.64,WSW,248,1.8,2.0,71,0.01,,,0.32,WUHU216HW,2013-04-10 18:14:00,
2013-04-10 14:19:00,58.5,49.5,29.63,SW,236,1.8,2.2,72,0.01,,,0.32,WUHU216HW,2013-04-10 18:19:00,
2013-04-10 14:24:00,58.5,49.5,29.63,WSW,237,1.4,2.5,72,0.01,,,0.32,WUHU216HW,2013-04-10 18:24:00,
2013-04-10 14:29:00,58.5,49.5,29.63,SSW,203,2.5,2.7,72,0.00,,,0.32,WUHU216HW,2013-04-10 18:29:00,
2013-04-10 14:34:00,58.3,49.3,29.62,North,0,0.7,2.7,72,0.00,,,0.32,WUHU216HW,2013-04-10 18:34:00,
2013-04-10 14:39:00,58.3,49.3,29.61,WSW,248,0.2,2.5,72,0.00,,,0.32,WUHU216HW,2013-04-10 18:39:00,
2013-04-10 14:44:00,58.5,49.5,29.61,SW,234,1.9,2.7,72,0.00,,,0.32,WUHU216HW,2013-04-10 18:44:00,
2013-04-10 14:49:00,58.5,49.1,29.62,South,180,1.1,2.7,71,0.00,,,0.32,WUHU216HW,2013-04-10 18:49:00,
2013-04-10 14:53:00,58.5,48.3,29.63,SW,225,4.7,4.7,69,0.00,,,0.32,WUHU216HW,2013-04-10 18:53:00,
2013-04-10 14:59:00,58.1,47.6,29.63,SW,225,1.8,4.7,68,0.00,,,0.32,WUHU216HW,2013-04-10 18:59:00,
2013-04-10 15:04:00,58.0,47.9,29.63,WSW,248,1.1,2.9,69,0.00,,,0.32,WUHU216HW,2013-04-10 19:04:00,
2013-04-10 15:09:00,57.8,47.7,29.62,SW,226,0.7,2.2,69,0.00,,,0.32,WUHU216HW,2013-04-10 19:09:00,
2013-04-10 15:14:00,57.6,47.5,29.61,SE,135,0.2,2.0,69,0.00,,,0.32,WUHU216HW,2013-04-10 19:14:00,
2013-04-10 15:19:00,57.6,47.5,29.58,South,180,0.2,2.2,69,0.00,,,0.32,WUHU216HW,2013-04-10 19:19:00,
2013-04-10 15:24:00,58.0,47.9,29.56,SSE,167,0.7,2.2,69,0.00,,,0.32,WUHU216HW,2013-04-10 19:24:00,
2013-04-10 15:38:00,58.5,47.5,29.55,NNE,19,1.0,2.5,67,0.00,,,0.32,WUHU216HW,2013-04-10 19:38:00,
2013-04-10 15:43:00,58.9,47.9,29.53,NNW,338,0.4,1.1,67,0.00,,,0.32,WUHU216HW,2013-04-10 19:43:00,
2013-04-10 15:48:00,59.0,47.7,29.54,ENE,70,1.2,1.8,66,0.00,,,0.32,WUHU216HW,2013-04-10 19:48:00,
2013-04-10 15:53:00,59.0,47.3,29.55,NE,45,0.6,2.0,65,0.00,,,0.32,WUHU216HW,2013-04-10 19:53:00,
2013-04-10 15:58:00,59.4,48.4,29.56,NNW,338,0.4,2.0,67,0.00,,,0.32,WUHU216HW,2013-04-10 19:58:00,
2013-04-10 16:03:00,59.4,48.1,29.58,SSW,203,3.4,3.4,66,0.00,,,0.32,WUHU216HW,2013-04-10 20:03:00,
2013-04-10 16:08:00,58.9,47.5,29.58,WSW,237,1.3,3.8,66,0.00,,,0.32,WUHU216HW,2013-04-10 20:08:00,
2013-04-10 16:13:00,58.7,47.4,29.58,NNW,347,0.3,3.8,66,0.00,,,0.32,WUHU216HW,2013-04-10 20:13:00,
2013-04-10 16:19:00,58.7,47.7,29.58,West,268,0.8,2.0,67,0.00,,,0.32,WUHU216HW,2013-04-10 20:19:00,
2013-04-10 16:24:00,58.7,47.4,29.58,North,0,0.4,1.6,66,0.00,,,0.32,WUHU216HW,2013-04-10 20:24:00,
2013-04-10 16:29:00,58.7,47.7,29.57,SSW,203,0.4,0.9,67,0.00,,,0.32,WUHU216HW,2013-04-10 20:29:00,
2013-04-10 16:34:00,58.7,47.7,29.57,NNW,338,0.2,0.7,67,0.00,,,0.32,WUHU216HW,2013-04-10 20:34:00,
2013-04-10 16:39:00,58.7,47.7,29.57,South,174,0.5,1.1,67,0.00,,,0.32,WUHU216HW,2013-04-10 20:39:00,
2013-04-10 16:44:00,58.9,47.5,29.57,ENE,68,0.9,1.8,66,0.00,,,0.32,WUHU216HW,2013-04-10 20:44:00,
2013-04-10 16:49:00,58.9,47.5,29.57,North,0,0.5,1.8,66,0.00,,,0.32,WUHU216HW,2013-04-10 20:49:00,
2013-04-10 16:54:00,58.9,47.5,29.57,NW,315,0.4,0.7,66,0.00,,,0.32,WUHU216HW,2013-04-10 20:54:00,
2013-04-10 16:59:00,58.9,47.1,29.57,NNE,23,0.9,2.2,65,0.00,,,0.32,WUHU216HW,2013-04-10 20:59:00,
2013-04-10 17:04:00,58.9,47.1,29.57,NNE,17,0.7,2.2,65,0.00,,,0.32,WUHU216HW,2013-04-10 21:04:00,
2013-04-10 17:09:00,59.0,47.3,29.57,NNW,328,0.8,1.6,65,0.00,,,0.32,WUHU216HW,2013-04-10 21:09:00,
2013-04-10 17:14:00,59.0,47.7,29.57,SW,225,0.7,2.9,66,0.00,,,0.32,WUHU216HW,2013-04-10 21:14:00,
2013-04-10 17:19:00,59.0,47.3,29.57,West,262,0.8,2.9,65,0.00,,,0.32,WUHU216HW,2013-04-10 21:19:00,
2013-04-10 17:24:00,59.0,47.3,29.57,NNW,331,0.3,1.1,65,0.00,,,0.32,WUHU216HW,2013-04-10 21:24:00,
2013-04-10 17:29:00,58.9,47.1,29.57,North,2,0.6,1.3,65,0.00,,,0.32,WUHU216HW,2013-04-10 21:29:00,
2013-04-10 17:35:00,58.7,47.4,29.57,East,96,1.0,2.0,66,0.00,,,0.32,WUHU216HW,2013-04-10 21:35:00,
2013-04-10 17:40:00,58.7,47.4,29.56,SW,225,0.7,2.0,66,0.00,,,0.32,WUHU216HW,2013-04-10 21:40:00,
2013-04-10 17:45:00,58.3,47.3,29.56,ENE,68,0.0,0.7,67,0.00,,,0.32,WUHU216HW,2013-04-10 21:45:00,
2013-04-10 17:50:00,58.3,47.3,29.56,ENE,68,0.4,0.4,67,0.00,,,0.32,WUHU216HW,2013-04-10 21:50:00,
2013-04-10 17:55:00,58.3,47.3,29.56,WNW,293,0.0,0.4,67,0.00,,,0.32,WUHU216HW,2013-04-10 21:55:00,
2013-04-10 18:00:00,58.0,47.1,29.56,East,90,0.4,0.4,67,0.00,,,0.32,WUHU216HW,2013-04-10 22:00:00,
2013-04-10 18:05:00,57.8,47.3,29.56,East,90,0.9,0.9,68,0.00,,,0.32,WUHU216HW,2013-04-10 22:05:00,
2013-04-10 18:10:00,57.6,47.1,29.56,SSW,203,0.2,0.9,68,0.00,,,0.32,WUHU216HW,2013-04-10 22:10:00,
2013-04-10 18:15:00,57.2,47.2,29.56,South,180,0.2,0.9,69,0.00,,,0.32,WUHU216HW,2013-04-10 22:15:00,
2013-04-10 18:20:00,56.9,46.8,29.57,South,180,0.0,0.2,69,0.00,,,0.32,WUHU216HW,2013-04-10 22:20:00,
2013-04-10 18:25:00,56.7,47.1,29.57,North,0,0.3,0.7,70,0.00,,,0.32,WUHU216HW,2013-04-10 22:25:00,
2013-04-10 18:30:00,56.3,46.7,29.56,ESE,113,0.9,0.9,70,0.00,,,0.32,WUHU216HW,2013-04-10 22:30:00,
2013-04-10 18:35:00,56.2,46.5,29.56,East,90,0.0,0.9,70,0.00,,,0.32,WUHU216HW,2013-04-10 22:35:00,
2013-04-10 18:40:00,56.0,46.7,29.56,ENE,68,0.0,1.1,71,0.00,,,0.32,WUHU216HW,2013-04-10 22:40:00,
2013-04-10 18:46:00,55.6,46.7,29.56,North,0,0.2,1.1,72,0.00,,,0.32,WUHU216HW,2013-04-10 22:46:00,
2013-04-10 18:51:00,55.4,46.9,29.56,NE,45,0.8,1.8,73,0.00,,,0.32,WUHU216HW,2013-04-10 22:51:00,
2013-04-10 18:56:00,55.1,46.3,29.55,East,90,1.1,1.8,72,0.00,,,0.32,WUHU216HW,2013-04-10 22:56:00,
2013-04-10 19:01:00,54.9,46.1,29.55,NE,45,1.1,1.8,72,0.00,,,0.32,WUHU216HW,2013-04-10 23:01:00,
2013-04-10 19:06:00,54.7,46.3,29.55,NE,45,0.7,1.8,73,0.00,,,0.32,WUHU216HW,2013-04-10 23:06:00,
2013-04-10 19:11:00,54.7,46.3,29.55,NE,45,0.4,1.1,73,0.00,,,0.32,WUHU216HW,2013-04-10 23:11:00,
2013-04-10 19:16:00,54.4,46.3,29.54,East,83,0.8,1.3,74,0.00,,,0.32,WUHU216HW,2013-04-10 23:16:00,
2013-04-10 19:21:00,54.2,46.5,29.56,SW,225,0.2,1.3,75,0.00,,,0.32,WUHU216HW,2013-04-10 23:21:00,
2013-04-10 19:26:00,54.0,46.3,29.56,North,0,0.2,0.9,75,0.00,,,0.32,WUHU216HW,2013-04-10 23:26:00,
2013-04-10 19:32:00,53.8,46.5,29.57,NE,46,0.3,0.9,76,0.01,,,0.33,WUHU216HW,2013-04-10 23:32:00,
2013-04-10 19:37:00,53.5,46.4,29.56,North,0,1.1,1.1,77,0.01,,,0.33,WUHU216HW,2013-04-10 23:37:00,
2013-04-10 19:42:00,52.9,46.3,29.56,North,0,0.0,1.1,78,0.02,,,0.34,WUHU216HW,2013-04-10 23:42:00,
2013-04-10 19:47:00,52.6,45.9,29.56,North,0,0.0,1.1,78,0.03,,,0.35,WUHU216HW,2013-04-10 23:47:00,
2013-04-10 19:52:00,52.2,46.3,29.54,NE,45,0.7,1.1,80,0.04,,,0.36,WUHU216HW,2013-04-10 23:52:00,
2013-04-10 19:57:00,51.8,46.2,29.55,NE,45,0.0,1.1,81,0.05,,,0.37,WUHU216HW,2013-04-10 23:57:00,
2013-04-10 20:02:00,51.5,46.2,29.56,North,354,0.3,0.9,82,0.06,,,0.38,WUHU216HW,2013-04-11 00:02:00,
2013-04-10 20:07:00,51.1,45.8,29.58,NNW,338,0.0,0.7,82,0.07,,,0.39,WUHU216HW,2013-04-11 00:07:00,
2013-04-10 20:12:00,50.9,45.6,29.59,West,270,0.4,0.4,82,0.08,,,0.40,WUHU216HW,2013-04-11 00:12:00,
2013-04-10 20:17:00,50.8,45.5,29.58,SW,230,0.3,0.4,82,0.09,,,0.41,WUHU216HW,2013-04-11 00:17:00,
2013-04-10 20:23:00,50.8,46.1,29.57,NNE,23,0.8,1.1,84,0.09,,,0.41,WUHU216HW,2013-04-11 00:23:00,
2013-04-10 20:28:00,50.6,45.9,29.57,NNE,23,0.2,1.1,84,0.09,,,0.41,WUHU216HW,2013-04-11 00:28:00,
2013-04-10 20:33:00,50.4,45.7,29.58,North,0,0.2,0.7,84,0.09,,,0.42,WUHU216HW,2013-04-11 00:33:00,
2013-04-10 20:38:00,50.2,45.6,29.60,WSW,248,0.3,0.9,84,0.08,,,0.42,WUHU216HW,2013-04-11 00:38:00,
2013-04-10 20:43:00,50.2,45.6,29.61,WSW,248,0.3,0.9,84,0.08,,,0.42,WUHU216HW,2013-04-11 00:43:00,
2013-04-10 20:48:00,50.0,45.6,29.60,WSW,248,0.4,0.4,85,0.09,,,0.44,WUHU216HW,2013-04-11 00:48:00,
2013-04-10 20:53:00,49.9,45.5,29.60,SSW,203,0.0,0.4,85,0.08,,,0.44,WUHU216HW,2013-04-11 00:53:00,
2013-04-10 20:58:00,49.7,45.3,29.60,SSW,203,0.0,0.4,85,0.08,,,0.46,WUHU216HW,2013-04-11 00:58:00,
2013-04-10 21:03:00,49.7,45.3,29.60,SSW,203,0.0,0.0,85,0.08,,,0.46,WUHU216HW,2013-04-11 01:03:00,
2013-04-10 21:08:00,49.7,45.3,29.60,SSW,203,0.0,0.0,85,0.08,,,0.47,WUHU216HW,2013-04-11 01:08:00,
2013-04-10 21:14:00,49.5,45.1,29.60,SSW,203,0.0,0.0,85,0.07,,,0.47,WUHU216HW,2013-04-11 01:14:00,
2013-04-10 21:19:00,49.5,45.1,29.59,SW,225,0.0,0.0,85,0.07,,,0.48,WUHU216HW,2013-04-11 01:19:00,
2013-04-10 21:24:00,49.3,45.3,29.59,WNW,293,0.0,0.0,86,0.07,,,0.48,WUHU216HW,2013-04-11 01:24:00,
2013-04-10 21:29:00,49.3,45.5,29.59,NW,315,0.0,0.0,87,0.07,,,0.48,WUHU216HW,2013-04-11 01:29:00,
2013-04-10 21:34:00,49.1,45.7,29.59,North,0,0.4,0.4,88,0.06,,,0.48,WUHU216HW,2013-04-11 01:34:00,
2013-04-10 21:39:00,49.0,45.3,29.58,ENE,73,0.6,0.9,87,0.06,,,0.48,WUHU216HW,2013-04-11 01:39:00,
2013-04-10 21:44:00,48.8,45.4,29.58,ENE,68,0.0,0.9,88,0.07,,,0.49,WUHU216HW,2013-04-11 01:44:00,
2013-04-10 21:49:00,48.8,45.4,29.59,ENE,68,0.0,0.7,88,0.05,,,0.49,WUHU216HW,2013-04-11 01:49:00,
2013-04-10 21:54:00,48.6,45.2,29.59,NE,45,0.4,0.4,88,0.04,,,0.49,WUHU216HW,2013-04-11 01:54:00,
2013-04-10 21:59:00,48.6,45.2,29.58,NE,45,0.0,0.4,88,0.04,,,0.50,WUHU216HW,2013-04-11 01:59:00,
2013-04-10 22:04:00,48.4,45.1,29.58,NE,45,0.3,0.4,88,0.04,,,0.50,WUHU216HW,2013-04-11 02:04:00,
2013-04-10 22:10:00,48.4,45.1,29.58,NE,45,0.3,0.4,88,0.03,,,0.50,WUHU216HW,2013-04-11 02:10:00,
2013-04-10 22:15:00,48.2,44.9,29.59,NE,45,0.0,0.4,88,0.03,,,0.50,WUHU216HW,2013-04-11 02:15:00,
2013-04-10 22:20:00,48.1,44.7,29.59,East,89,1.1,1.1,88,0.02,,,0.50,WUHU216HW,2013-04-11 02:20:00,
2013-04-10 22:25:00,48.1,44.7,29.60,NE,45,0.0,1.1,88,0.04,,,0.52,WUHU216HW,2013-04-11 02:25:00,
2013-04-10 22:30:00,47.9,44.6,29.60,NE,45,0.2,0.7,88,0.04,,,0.52,WUHU216HW,2013-04-11 02:30:00,
2013-04-10 22:35:00,47.9,44.6,29.60,NE,45,0.0,0.2,88,0.04,,,0.52,WUHU216HW,2013-04-11 02:35:00,
2013-04-10 22:40:00,47.9,44.8,29.60,North,0,0.7,0.7,89,0.05,,,0.54,WUHU216HW,2013-04-11 02:40:00,
2013-04-10 22:45:00,47.7,44.6,29.60,NNW,338,0.0,0.7,89,0.05,,,0.54,WUHU216HW,2013-04-11 02:45:00,
2013-04-10 22:50:00,47.7,44.6,29.60,NNW,338,0.2,0.7,89,0.07,,,0.56,WUHU216HW,2013-04-11 02:50:00,
2013-04-10 22:55:00,47.5,44.5,29.59,NNE,23,0.3,1.1,89,0.07,,,0.56,WUHU216HW,2013-04-11 02:55:00,
2013-04-10 23:00:00,47.5,44.5,29.60,NNE,23,0.0,1.1,89,0.06,,,0.56,WUHU216HW,2013-04-11 03:00:00,
2013-04-10 23:05:00,47.3,44.6,29.60,NNE,23,0.0,0.4,90,0.06,,,0.56,WUHU216HW,2013-04-11 03:05:00,
2013-04-10 23:10:00,47.3,44.6,29.60,NNE,23,0.4,0.4,90,0.08,,,0.58,WUHU216HW,2013-04-11 03:10:00,
2013-04-10 23:15:00,47.3,44.6,29.60,NNE,23,0.0,0.4,90,0.08,,,0.58,WUHU216HW,2013-04-11 03:15:00,
2013-04-10 23:20:00,47.2,44.5,29.60,NNE,23,0.4,0.4,90,0.08,,,0.58,WUHU216HW,2013-04-11 03:20:00,
2013-04-10 23:25:00,47.2,44.5,29.60,NNE,23,0.0,0.4,90,0.06,,,0.58,WUHU216HW,2013-04-11 03:25:00,
2013-04-10 23:30:00,47.2,44.5,29.60,NNE,23,0.0,0.4,90,0.07,,,0.59,WUHU216HW,2013-04-11 03:30:00,
2013-04-10 23:35:00,47.2,44.5,29.59,NNE,23,0.3,0.7,90,0.07,,,0.59,WUHU216HW,2013-04-11 03:35:00,
2013-04-10 23:40:00,47.2,44.5,29.59,NNE,23,0.0,0.7,90,0.05,,,0.59,WUHU216HW,2013-04-11 03:40:00,
2013-04-10 23:45:00,47.2,44.5,29.59,NNE,23,0.0,0.0,90,0.05,,,0.59,WUHU216HW,2013-04-11 03:45:00,
2013-04-10 23:51:00,47.0,44.3,29.59,NNE,23,0.0,0.0,90,0.05,,,0.61,WUHU216HW,2013-04-11 03:51:00,
2013-04-10 23:56:00,47.0,44.3,29.58,NNE,23,0.0,0.0,90,0.05,,,0.61,WUHU216HW,2013-04-11 03:56:00,